DELTA 1 DEB, 7041

Orbit data source: Space-Track

DELTA 1 DEB, 7041 is space debris in SSO originally from a launch on Tue, 06 Nov 1973 UTC launched from the Air Force Western Test Range (AFWTR). Debris objects in space refer to the collection of defunct objects orbiting the Earth. Examples of debris include non-operational satellites, rocket bodies, and fragments generated from explosions, collisions, or faulty payload assembly.

Loading next visibility...
Identifier
7041, 1973-086AH
Orbit
SSO
Last TLE update
12 hours ago
Origin
Manufacturer
Unknown
Mission
Spacecraft
Bus & Motor
Unknown
Mass
Unknown
Launch date (UTC)
1973-11-06 (52 years ago)
Launch vehicle
Unknown
Launch site
Air Force Western Test Range (AFWTR)
Object type
Payload
Rocket body
Debris
Shape & HBR
Unknown
Radar Cross Section
Medium (>0.1 m² and <1 m²)

Expand to show TLE details & history

TLE from 12 hours ago
0 DELTA 1 DEB
1 07041U 73086AH  25181.87403196  .00000705  00000-0  54179-2 0  9991
2 07041 101.5891 218.7016 0192206 160.7026  19.1131 12.37506528311130
Epoch: 2025-06-30T20:58Z
TLE epoch observation values (Epoch: 2025-06-30T20:58:36.361Z)
Latitude
-0.65139°
Longitude
164.73959°
Altitude
1,376.752 km
Speed
7.235 km/s
True Right ascension
02h 34m 16s
True Declination
0° 38' 52"
Sunlit
Object was in daylight at epoch
Visualization orbit readout
Latitude
-72.54669°
Longitude
124.87504°
Altitude
1,559.318 km
Speed
7.081 km/s
Apparent Right ascension
06h 45m 59s
Apparent Declination
-71° 58' 20"
Sunlit
Object is in daylight
Visualization observer readout
Local Sidereal Time
20:39:27
Azimuth
165.152° S
Elevation
-54.988°
Doppler factor
1
Orbital elements
Apogee altitude
1,666.45 km
Perigee altitude
1,363.038 km
Semi-major axis
7,892.881 km
Eccentricity
0.01922
Inclination
101.5891°
RAAN
218.7016°
Arg. of periapsis
160.7026°
True anomaly
Unknown
Mean anomaly
19.1131°
Eccentric anomaly
Unknown
Mean motion
3.09521 °/min
Orbital period
116.31 mins
BSTAR
0.0054179
Loading maneuver chart data...
Loading SW <> Apogee altitude chart data...
Loading historical data...
Loading historical data...
Loading historical data...
Loading historical data...
Loading historical data...
Loading historical data...
Loading historical data...

DELTA 1 DEB Visibility forecast

Observer location: undefined°, undefined°

Span
Click to sort rows by Start time (UTC) header in descending order
Start Az.
Max El. time (UTC)
Max El. Az.
Max El.
End time (UTC)
End Az.
12 mins2025-07-01 14:08:14.358Z41.488° NE2025-07-01 14:14:14.358Z93.201° ESE24.437°2025-07-01 14:20:14.358Z147.608° SSE
13 mins2025-07-01 16:03:14.358Z6.44° NNE2025-07-01 16:09:14.358Z289.889° WNW40.878°2025-07-01 16:16:14.358Z217.455° SW
4 mins2025-07-01 18:00:14.358Z325.914° NNW2025-07-01 18:01:14.358Z318.16° NNW12.157°2025-07-01 18:04:14.358Z295.082° NW
14 mins2025-07-02 01:15:14.358Z125.872° SE2025-07-02 01:22:14.358Z56.663° ENE35.422°2025-07-02 01:29:14.358Z356.27° N
14 mins2025-07-02 03:09:14.358Z195.558° SSW2025-07-02 03:16:14.358Z263.629° W34.872°2025-07-02 03:23:14.358Z326.875° NNW
|